DELTA 1 DEB, 42647

Orbit data source: Space-Track

DELTA 1 DEB, 42647 is space debris in SSO originally from a launch on Thu, 12 Jun 1975 UTC launched from the Air Force Western Test Range (AFWTR). Debris objects in space refer to the collection of defunct objects orbiting the Earth. Examples of debris include non-operational satellites, rocket bodies, and fragments generated from explosions, collisions, or faulty payload assembly.

Loading next visibility...
Identifier
42647, 1975-052MG
Orbit
SSO
Country
Flag of USUS
Related business
Manufacturer
Unknown
Mission
Spacecraft
Bus & Motor
Unknown
Mass
Unknown
Launch date (UTC)
1975-06-12 (51 years ago)
Launch vehicle
Unknown
Launch site
Air Force Western Test Range (AFWTR)
Object type
Payload
Rocket body
Debris
Shape & HBR
Unknown shape, 0.1 m
Radar Cross Section
Small (<0.1 m²)

Expand to show TLE details & history
Last TLE update: 1 week ago

TLE from 1 week ago
0 DELTA 1 DEB
1 42647U 75052MG  26165.66480108  .00000006  00000-0  97653-4 0  9995
2 42647  99.7413 316.8556 0064608 308.3574  51.1756 13.32600564 83316
Epoch: 2026-06-14T15:57Z
TLE epoch observation values (Epoch: 2026-06-14T15:57:18.813Z)
Latitude
-0.00001°
Longitude
174.56493°
Altitude
1,109.477 km
Speed
7.312 km/s
True Right ascension
21h 07m 25s
True Declination
0° 00' 00"
Sunlit
Object was in full shadow at epoch
Visualization orbit readout
Latitude
Unknown
Longitude
Unknown
Altitude
Unknown
Speed
Unknown
Apparent Right ascension
Unknown
Apparent Declination
Unknown
Sunlit
N/A
Visualization observer readout
Local Sidereal Time
21:41:17
Azimuth
Unknown
Elevation
Unknown
Doppler factor
Unknown
Orbital elements
Apogee altitude
1,182.833 km
Perigee altitude
1,085.76 km
Semi-major axis
7,512.434 km
Eccentricity
0.00646
Inclination
99.7413°
RAAN
316.8556°
Arg. of periapsis
308.3574°
True anomaly
51.75531°
Mean anomaly
51.1756°
Eccentric anomaly
51.46516°
Mean motion
3.33328 °/min
Orbital period
108 mins
BSTAR
0.000097653
Loading maneuver chart data...
Computing Atmospheric mass density...
Loading historical data...
Loading historical data...
Loading historical data...
Loading historical data...
Loading historical data...
Loading historical data...
Loading historical data...

Documentation

Showing up to 5 results
|